Location: ?????
(55.6500°N, 37.2500°E)
Time: 02:54:40
(UTC+00:00)

Cosmos 2333 - Pass Details

Date: 19 May 2025
Orbit: 830 x 863 km, 70.9° (Epoch: 15 June)

Event Time Altitude Azimuth Distance (km) Brightness Sun altitude
Rises 20:38:32 0° 325° (NW) 3,427 8.7 -13.7°
Reaches altitude 10° 20:41:01 10° 328° (NNW) 2,483 7.8 -13.7°
Maximum altitude 20:46:42 67° 51° (NE) 912 4.5 -13.9°
Enters shadow 20:51:46 13° 134° (SE) 2,250 6.0 -14.0°
